Regional Weather Roundup
Issued by NWS Midland/Odessa, TX

Skip options and go directly to product.
Home | Oldest Version | Next Version | Current Version | All | Text Only | Save Text | Print | Product List | Glossary On

Skip product version selection by date and time.   
420
ASUS44 KMAF 281310
RWRMAF
MIDLAND AREA WEATHER ROUNDUP
NATIONAL WEATHER SERVICE MIDLAND TX
800 AM CDT THU AUG 28 2014

...IN SOUTHWEST TEXAS AND SOUTHEAST NEW MEXICO...

CITY           SKY/WX    TMP DP  RH WIND       PRES   REMARKS
ALPINE         PTCLDY    65  58  76 SW7       30.20R
ANDREWS        FAIR      73  60  61 S7        30.04R
ARTESIA        NOT AVBL
BIG SPRING     MOCLDY    79  62  55 SE9       30.04R
CARLSBAD       CLEAR     69  62  78 NW8       30.04R
DRYDEN           N/A     78  61  55 N6        29.99R
FORT STOCKTON  PTCLDY    75  59  57 S8        30.04R
GUAD PASS      MOCLDY    71  57  61 CALM      30.21R
HOBBS          PTCLDY    68  63  83 CALM      30.07R
MARFA          PTCLDY    61  55  82 N8        30.19R
MIDLAND AIRPK  PTCLDY    76  61  58 S6        30.03R
MIDLAND INTL   CLEAR     75  61  61 S7        30.02R
ODESSA         CLEAR     77  60  55 S10       30.03R
PECOS          PTCLDY    70  58  64 CALM      30.00R
PRESIDIO       FAIR      78  59  51 N10       30.02R
SEMINOLE       CLEAR     70  58  66 CALM      30.06R
SNYDER         PTCLDY    77  61  57 S12       30.02S
WINK           CLEAR     75  59  57 SE5       30.00R
$$
...OTHER STATIONS IN TEXAS...

CITY           SKY/WX    TMP DP  RH WIND       PRES   REMARKS
ABILENE        CLEAR     76  61  59 S10       30.00R
AMARILLO       PTCLDY    65  62  90 SW8       30.05S
AUSTIN         MOSUNNY   76  70  82 CALM      29.95R
BROWNSVILLE    LGT RAIN  80  77  90 NW6       29.84R
CORPUS CHRISTI PTSUNNY   81  76  84 NE8       29.87F
DALLAS FTW     MOSUNNY   77  66  68 CALM      29.96S
DEL RIO        CLEAR     78  66  66 E7        29.95R
EL PASO        PTCLDY    70  59  68 CALM      30.10R
HOUSTON INT    MOSUNNY   77  75  94 E7        29.93S
LUBBOCK        MOCLDY    72  61  68 S7        30.04R
SAN ANGELO     CLEAR     73  61  65 CALM      30.00R
SAN ANTONIO    PTSUNNY   78  72  81 NE5       29.96R
WACO           SUNNY     75  67  76 CALM      29.96S
WICHITA FALLS  NOT AVBL
$$
...OTHER LOCATIONS IN NEW MEXICO...

CITY           SKY/WX    TMP DP  RH WIND       PRES   REMARKS
ALAMAGORDO     CLEAR     59  57  94 CALM      30.14R
ALBUQUERQUE    CLEAR     59  47  64 W5        30.23R
CANNON AFB     PTCLDY    66  62  86 N3        30.10R
CLOVIS           N/A     64  57  77 CALM      30.11S
HOLLOMAN AFB   CLEAR     61  58  91 N5        30.12R
ROSWELL        MOCLDY    68  61  78 NW5       30.07R
RUIDOSO        CLEAR     57  46  67 N5        30.31S
SANTA FE       CLEAR     48  42  80 N3        30.26R
TRUTH OR CONSE CLEAR     62  53  72 NW7       30.18R
TUCUMCARI      CLEAR     63  53  70 W6        30.06S
$$

USA.gov is the U.S. government's official web portal to all federal, state and local government web resources and services.